Terminal Aerodrome Forecast
Issued by NWS La Crosse, WI

Home | Current Version | Previous Version | Text Only | Print | Product List | Glossary On
Versions: 1 2 3 4 5 6 7 8 9 10 11 12 13 14 15 16 17 18 19 20 21 22 23 24 25 26 27 28 29 30 31 32 33 34 35 36 37 38 39 40 41 42 43 44 45
000
FTUS43 KARX 072320
TAFLSE
TAF
KLSE 072320Z 0800/0824 26014KT P6SM OVC035
     FM080100 29018G26KT 6SM -SHSNRA OVC025
      TEMPO 0801/0803 3SM -SHSN OVC020
     FM080300 30016G24KT 5SM -SHSN OVC020
      TEMPO 0804/0808 1SM -SHSN OVC015=

USA.gov is the U.S. government's official web portal to all federal, state and local government web resources and services.